DECAYED

STARLINK-1061, 44766 (Decayed)

Orbit data source: Space-Track

STARLINK-1061, 44766 was a payload satellite owned by SpaceX/Seattle (US) in LEO that was launched on Mon, 11 Nov 2019 UTC via an FALCON 9 launch vehicle from the Air Force Eastern Test Range (AFETR). Payload-class satellites include a variety of spacecraft equipped with specific instruments for various scientific and technological missions. These include communications satellites like Starlink; space stations such as the ISS; scientific satellites like the Hubble; Earth observation satellites from companies like Planet Labs, Umbra, and HawkEye 360; GPS; miniature CubeSats for education and research; and military/defense satellites.

Not visible in the next 10 days
Identifier
44766, 2019-074BF
Orbit
Decayed
Last TLE update
5 months ago
Origin
Manufacturer
SpaceX/Seattle
Mission
Decayed Commercial Communications
Bus & Motor
STARLINK, Unknown motor
Mass
260 kg wet, ~248 kg dry
Launch date (UTC)
2019-11-11 (6 years ago)
Launch vehicle
FALCON 9
Launch site
Air Force Eastern Test Range (AFETR)
Object type
Payload
Rocket body
Debris
Shape & HBR
Box + 1 Pan, 8.86 m
Radar Cross Section
13.562 m², Large (>1 m²)

Expand to show TLE details & history

TLE from 5 months ago
0 STARLINK-1061
1 44766U 19074BF  25037.79989435  .11523161  12536-4  42999-3 0  9996
2 44766  53.0335 155.7344 0005806 313.5790 178.3389 16.43867673289362
Epoch: 2025-02-06T19:11Z
TLE epoch observation values (Epoch: 2025-02-06T19:11:50.871Z)
Latitude
36.60203°
Longitude
-123.16329°
Altitude
162.191 km
Speed
7.812 km/s
True Right ascension
20h 07m 52s
True Declination
36° 25' 21"
Sunlit
Object was in daylight at epoch
Visualization orbit readout
Visualization observer readout
Orbital elements
Apogee altitude
159.618 km
Perigee altitude
152.031 km
Semi-major axis
6,533.961 km
Eccentricity
0.00058
Inclination
53.0335°
RAAN
155.7344°
Arg. of periapsis
313.579°
True anomaly
Unknown
Mean anomaly
178.3389°
Eccentric anomaly
Unknown
Mean motion
4.1094 °/min
Orbital period
87.6 mins
BSTAR
0.00042999
Loading maneuver chart data...
Loading SW <> Apogee altitude chart data...

STARLINK-1061 Visibility

Observer location: undefined°, undefined°

This satellite is decayed
Span
Click to sort rows by Start time (UTC) header in descending order
Start Az.
Max El. time (UTC)
Max El. Az.
Max El.
End time (UTC)
End Az.
|